Find Starlink 34112

NORAD ID: 63969 Int'l Des: 2025-099 Owner: SPXS Country: US Constellation: starlink operational
LEOCIRCULAR

当前视图

正在加载3D地球...

About Starlink 34112

Starlink 34112 (NORAD 63969) is a starlink constellation satellite (v2 mini) launched May 13, 2025 by SPXS of US. It operates in LEO, CIRCULAR orbit with a mass of 575.00 kg.

即将过境

Passes for default location (London). Set your location on the main map for personalized predictions.

高度历史

Loading altitude history...

两行轨道根数

1 63969U 25099T 26235.57557480 .00011551 00000-0 42854-3 0 9996
2 63969 43.0036 313.3599 0001299 275.1875 84.8829 15.27585493 72861
Epoch: Aug 23, 2026 • Age: 11 hours

当前状态

高度 495.1 km
远地点 / 近地点 N/A
速度 7.62 km/s
星下点 -42.30°S, 104.23°W
发射日期 May 13, 2025
运行时间 1.2 years
类型 internet

技术详情

分类 Payload
质量 575.00 kg
干质量 530.00 kg
总质量 575.00 kg
长度 0.30 m
直径 4.10 m
跨度 29.00 m
形状 Box + pan
制造商 SPXS
平台类型 Starlink V2MO
阶段状态 In Orbit
所有者/国家 SPXS/US

Most Searched